Spokane, WA

1:05 PM PDT on April 30, 2017 (GMT -0700)
Spokane International

Weather History for KGEG - March, 2013

Change the Weather History Date:

Monday, March 18, 2013

  Actual Average Record
Temperature  
Mean Temperature 35 °F 41 °F  
Max Temperature 46 °F 50 °F 68 °F (1947)
Min Temperature 24 °F 32 °F 10 °F (1965)
Degree Days  
Heating Degree Days 30 24  
Month to date heating degree days 430 478  
Since 1 July heating degree days 4967 5307  
Cooling Degree Days 0 0  
Month to date cooling degree days 0 0  
Year to date cooling degree days 0 0  
Moisture  
Dew Point 23 °F    
Average Humidity 58    
Maximum Humidity 84    
Minimum Humidity 31    
Precipitation  
Precipitation T in 0.06 in 0.62 in (1995)
Month to date precipitation 0.39 0.95  
Year to date precipitation 2.76 4.07  
Snow  
Snow T in 0.10 in 3.50 in (1897)
Month to date snowfall 0.9 2.2  
Since 1 July snowfall 43.5 42.5  
Snow Depth 0.00 in    
Sea Level Pressure  
Sea Level Pressure 30.04 in    
Wind  
Wind Speed 13 mph (SW)    
Max Wind Speed 39 mph    
Max Gust Speed 45 mph    
Visibility 9 miles    
Events Snow    
T = Trace of Precipitation, MM = Missing Value Source: NWS Daily Summary

Daily Weather History Graph

Daily Weather History Graph

Search for Another Location

Airport or City:

Trip Planner

Search our weather history database for the weather conditions in past years. The results will help you decide how hot, cold, wet, or windy it might be!

Date:

Astronomy

Mar. 18, 2013 Rise Set
Actual Time 6:56 AM PDT 7:00 PM PDT
Civil Twilight 6:25 AM PDT 7:31 PM PDT
Nautical Twilight 5:49 AM PDT 8:07 PM PDT
Astronomical Twilight 5:12 AM PDT 8:44 PM PDT
Moon 10:35 AM PDT (3/18) 1:27 AM PDT (3/18)
Length of Visible Light 13h 05m
Length of Day
12h 04m
Waxing Crescent, 41% of the Moon is Illuminated
Mar 18
Waxing Crescent
Mar 19
First Quarter
Mar 27
Full
Apr 2
Last Quarter
Apr 10
New

Hourly Weather History & Observations

Time (PDT) Temp. Windchill Dew Point Humidity Pressure Visibility Wind Dir Wind Speed Gust Speed Precip Events Conditions
12:53 AM 30.9 °F 21.2 °F 21.0 °F 67% 30.02 in 10.0 mi SSW 12.7 mph - N/A   Overcast
1:53 AM 30.0 °F 19.5 °F 21.9 °F 72% 30.02 in 10.0 mi SW 13.8 mph - N/A   Scattered Clouds
2:53 AM 30.0 °F 19.5 °F 21.9 °F 72% 30.02 in 10.0 mi SSW 13.8 mph - N/A   Scattered Clouds
3:53 AM 28.0 °F 20.0 °F 21.9 °F 78% 30.02 in 10.0 mi South 8.1 mph - N/A   Scattered Clouds
4:53 AM 27.0 °F 16.1 °F 21.9 °F 81% 30.02 in 10.0 mi SSW 12.7 mph - N/A   Partly Cloudy
5:53 AM 27.0 °F 16.7 °F 21.9 °F 81% 30.03 in 10.0 mi SSW 11.5 mph - N/A   Partly Cloudy
6:53 AM 27.0 °F 15.6 °F 23.0 °F 85% 30.05 in 10.0 mi SSW 13.8 mph - N/A   Overcast
7:53 AM 28.9 °F 17.7 °F 23.0 °F 78% 30.05 in 10.0 mi SSW 15.0 mph 23.0 mph N/A   Mostly Cloudy
8:53 AM 28.9 °F 17.3 °F 23.0 °F 78% 30.06 in 10.0 mi SSW 16.1 mph 20.7 mph N/A   Mostly Cloudy
9:53 AM 32.0 °F 21.6 °F 24.1 °F 73% 30.05 in 10.0 mi South 15.0 mph - N/A   Mostly Cloudy
10:53 AM 37.0 °F 26.2 °F 25.0 °F 62% 30.01 in 10.0 mi SW 21.9 mph 28.8 mph N/A   Mostly Cloudy
11:53 AM 41.0 °F 30.5 °F 25.0 °F 53% 30.00 in 10.0 mi SW 26.5 mph 36.8 mph N/A   Mostly Cloudy
12:53 PM 42.1 °F 32.6 °F 23.0 °F 47% 30.00 in 10.0 mi WSW 23.0 mph 32.2 mph N/A   Mostly Cloudy
1:53 PM 43.0 °F 33.8 °F 21.0 °F 42% 29.99 in 10.0 mi WSW 23.0 mph 35.7 mph 0.00 in   Mostly Cloudy
2:42 PM 35.6 °F 23.4 °F 28.4 °F 75% 29.98 in 1.2 mi West 25.3 mph 44.9 mph N/A Snow Light Snow
2:53 PM 35.1 °F 28.6 °F 32.0 °F 89% 30.01 in 7.0 mi WSW 8.1 mph 26.5 mph 0.00 in Snow Light Snow
3:00 PM 35.6 °F 23.7 °F 30.2 °F 81% 29.96 in 2.0 mi WSW 24.2 mph 31.1 mph 0.00 in Snow Light Snow
3:17 PM 37.4 °F 30.3 °F 30.2 °F 75% 29.94 in 4.0 mi WSW 10.4 mph 18.4 mph 0.00 in Snow Light Snow
3:53 PM 43.0 °F 34.2 °F 26.1 °F 51% 29.98 in 10.0 mi West 20.7 mph 26.5 mph 0.00 in   Mostly Cloudy
4:53 PM 43.0 °F 34.8 °F 16.0 °F 34% 29.99 in 10.0 mi West 18.4 mph - N/A   Mostly Cloudy
5:53 PM 44.1 °F 35.2 °F 15.1 °F 31% 30.01 in 10.0 mi West 23.0 mph - N/A   Partly Cloudy
6:14 PM 39.2 °F 31.2 °F 24.8 °F 56% 29.97 in 10.0 mi North 13.8 mph - N/A   Partly Cloudy
6:53 PM 37.0 °F 34.5 °F 24.1 °F 59% 30.06 in 10.0 mi NNW 3.5 mph - N/A   Partly Cloudy
7:53 PM 35.1 °F 30.1 °F 24.1 °F 64% 30.08 in 10.0 mi South 5.8 mph - N/A   Partly Cloudy
8:53 PM 32.0 °F - 25.0 °F 75% 30.12 in 10.0 mi Calm Calm - N/A   Partly Cloudy
9:53 PM 32.0 °F - 24.1 °F 73% 30.14 in 10.0 mi Calm Calm - N/A   Partly Cloudy
10:53 PM 28.0 °F 22.8 °F 19.9 °F 72% 30.17 in 10.0 mi SSW 4.6 mph - N/A   Clear
11:53 PM 28.0 °F 24.2 °F 19.9 °F 72% 30.19 in 10.0 mi WSW 3.5 mph - N/A   Clear